Tracking 33747 objects as of 12-Apr-2026
HD Live streaming from Space Station
objects crossing your sky now

KUIPER-00279

Track KUIPER-00279 now!
10-day predictions
KUIPER-00279 is classified as:


NORAD ID: 67795
Int'l Code: 2026-030AH
Perigee: 459.7 km
Apogee: 468.6 km
Inclination: 51.9 °
Period: 93.7 minutes
Semi major axis: 6835 km
RCS: Unknown
Launch date: February 12, 2026
Source: France (FR)
Launch site: FRENCH GUIANA (FRGUI)
Your satellite tracking list
Your tracking list is empty




NASA's NSSDC Master Catalog

Two Line Element Set (TLE):
1 67795U 26030AH  26101.82274211  .00023337  00000-0  65745-3 0  9990
2 67795  51.8812  59.3943 0006510 144.8433 215.2984 15.36314102 10180
Source of the keplerian elements: AFSPC